Wind_Speed
15 13 11 8 4 4 5 3 3 4 3 1 3 3 2 2 1 2 3 10 13 12 9 7 4 2 1 3 6 2 4 1 3 3 4 6 8 9 8 9 8 8 9 9 9 9 9 12 12
15 14 11 8 6 5 5 5 5 5 4 4 6 6 6 6 3 3 1 9 16 13 9 6 3 3 3 3 5 4 4 3 5 4 5 7 8 8 8 8 8 8 8 8 9 9 10 10 11
15 14 11 6 8 5 4 7 6 5 6 5 4 8 9 6 7 5 1 7 15 14 10 6 4 6 6 5 4 5 7 7 6 6 6 7 7 7 7 7 7 6 7 8 8 9 9 9 10
16 14 11 9 8 7 5 6 6 4 5 6 5 7 8 13 9 6 4 8 15 14 11 7 5 6 6 6 4 6 8 8 9 8 7 7 6 6 5 6 5 6 6 6 7 8 8 9 9
14 12 12 10 10 6 8 6 7 5 6 9 7 7 6 6 7 8 7 11 18 13 11 8 6 5 5 3 4 5 7 8 9 9 7 6 5 5 4 4 4 4 5 5 6 7 7 8 9
16 13 8 14 12 9 8 7 7 6 7 8 7 7 6 6 6 7 9 15 20 16 12 8 6 5 3 3 2 4 7 8 9 9 8 7 5 4 3 2 2 2 4 5 5 6 7 8 9
26 18 14 10 12 9 9 9 7 8 7 7 7 8 6 6 6 7 11 18 20 17 14 10 6 4 3 4 4 3 4 5 7 8 8 7 5 4 2 1 1 2 4 4 4 5 6 7 8
34 33 31 25 16 9 10 12 10 11 9 8 8 5 3 4 5 7 11 18 21 20 17 14 10 7 6 6 6 5 3 5 7 7 6 5 5 5 2 1 0 1 3 3 3 5 5 7 9
17 29 29 29 29 23 14 15 14 13 10 10 9 8 7 5 5 6 9 17 22 22 19 15 12 11 9 9 9 9 6 4 8 8 7 6 4 3 2 2 0 1 1 2 3 4 6 8 10
26 20 30 29 27 22 23 15 15 14 11 10 9 9 9 8 7 6 7 13 20 22 20 17 14 12 10 9 9 9 9 10 10 9 9 7 5 3 2 3 2 2 3 4 5 6 6 8 10
27 27 22 21 23 30 19 17 17 16 14 9 8 11 9 10 8 6 5 11 17 22 21 18 16 13 11 10 10 10 8 7 10 9 7 5 4 3 3 2 1 2 3 3 5 8 8 9 11
27 26 24 29 27 28 32 21 20 19 14 11 9 11 9 10 9 6 5 9 15 20 22 20 17 15 13 12 11 11 10 10 11 12 11 9 7 6 3 3 3 4 5 5 7 8 10 11 12
26 26 28 26 30 34 32 34 25 23 18 15 12 9 9 10 8 7 6 9 16 20 22 20 18 16 14 13 12 12 12 13 14 13 12 10 9 6 6 6 6 7 6 7 8 10 12 13 14
26 24 26 29 29 33 37 38 37 27 23 20 15 13 11 11 10 8 6 6 12 19 22 22 19 17 15 15 14 13 14 15 15 14 13 10 8 7 6 7 8 8 8 9 9 11 14 15 17
28 28 28 28 29 31 32 43 48 35 26 26 22 17 14 13 15 8 9 6 11 15 21 23 21 20 17 17 15 15 15 15 16 16 14 12 10 9 9 8 9 10 10 11 13 14 16 18 20
28 29 31 31 27 31 31 46 38 41 37 32 28 24 20 18 15 14 12 10 11 16 19 22 23 20 18 18 18 17 15 15 16 16 14 12 12 11 9 9 12 11 12 12 14 16 18 19 21
30 33 31 33 30 30 31 39 33 36 45 40 35 30 27 23 23 19 16 13 11 15 19 22 22 21 20 20 21 21 20 17 16 16 15 15 14 13 13 13 13 12 12 14 16 17 19 21 23
32 31 33 34 27 31 34 38 34 32 37 42 40 40 37 33 29 23 19 19 16 16 19 22 24 24 23 23 24 25 24 21 18 16 17 17 17 16 16 15 15 14 14 16 18 19 20 23 26
24 26 33 33 27 27 30 35 33 27 35 37 36 38 41 40 32 27 27 23 23 21 21 22 24 25 26 25 23 24 24 22 20 17 17 18 18 18 18 17 17 16 16 19 21 21 23 24 26
35 18 21 23 29 26 32 36 35 33 36 37 38 38 38 39 39 33 33 31 27 24 23 24 23 26 26 25 22 22 22 23 23 22 21 21 20 20 19 19 19 19 20 21 23 23 24 25 27
41 40 32 23 18 19 30 43 44 40 36 37 40 36 37 39 37 37 36 37 34 30 28 24 21 23 25 26 27 26 26 27 26 24 22 20 21 21 21 21 21 22 24 23 24 26 27 27 28
41 40 30 30 22 17 12 13 35 34 39 41 38 38 36 39 39 37 40 42 40 37 31 27 26 24 25 26 27 26 26 25 23 23 23 23 23 23 23 23 24 25 26 26 26 27 28 29 28
40 31 36 23 22 24 26 17 35 33 40 38 39 38 34 33 31 31 33 37 38 37 36 32 29 28 26 25 26 26 26 25 25 27 27 27 26 26 26 26 27 27 28 28 28 28 29 29 30
36 30 15 29 27 16 37 27 31 42 41 33 34 34 30 29 31 31 30 31 34 37 37 38 34 30 28 28 28 27 27 27 28 29 30 29 29 28 28 29 30 30 31 30 29 30 31 31 31
41 25 8 9 9 13 16 26 50 22 25 34 35 33 32 31 31 31 32 34 33 35 38 37 39 36 35 33 31 30 27 28 27 27 28 30 29 28 28 29 30 31 31 30 30 30 31 33 33
46 44 12 8 6 10 18 21 23 29 23 31 23 30 38 34 32 32 33 36 36 36 37 38 39 40 38 36 34 31 31 29 27 27 26 26 26 26 27 28 30 30 30 29 31 32 33 35 35
41 37 41 6 9 3 15 38 47 40 32 31 31 30 36 38 34 30 25 27 28 32 36 39 39 39 40 39 36 35 34 32 30 28 26 25 25 25 26 26 28 30 31 32 34 36 36 38 39
38 47 32 15 4 5 11 24 36 20 32 37 38 30 27 32 34 35 31 27 25 24 27 33 36 37 39 39 42 40 36 33 31 31 29 28 27 26 27 28 30 31 34 36 38 39 40 43 43
43 33 39 35 20 5 8 21 41 35 40 39 27 26 23 26 29 26 31 28 29 29 28 29 31 32 34 36 38 41 41 40 39 37 32 29 28 28 28 29 31 33 35 37 40 42 44 46 46
57 42 46 24 25 33 6 34 23 11 14 26 30 29 25 25 26 27 30 31 31 31 30 31 31 31 31 32 35 39 42 43 44 43 38 33 31 31 32 34 34 35 37 39 42 42 42 42 40
Wind_Direction
214 216 219 222 244 244 211 213 209 263 219 241 250 213 230 342 84 44 171 164 156 153 143 140 129 106 86 195 173 142 173 149 100 79 102 117 116 109 107 95 85 77 71 68 65 63 63 66 70
214 217 222 222 246 233 218 226 231 246 254 257 284 248 252 260 280 283 195 184 170 164 147 138 107 54 63 96 132 131 128 129 117 118 121 128 122 115 107 97 84 69 66 67 68 69 69 72 70
215 219 220 221 237 233 241 212 210 231 258 276 279 263 261 242 273 269 207 183 180 177 153 140 92 61 76 81 104 114 125 139 133 141 140 135 125 111 99 89 80 70 66 67 79 84 81 75 69
214 217 219 222 230 215 181 201 221 231 278 296 282 277 268 252 259 232 210 186 180 175 157 145 103 74 72 72 99 111 130 142 136 145 141 132 120 104 94 82 66 61 69 80 84 85 81 72 61
219 212 217 225 217 202 194 217 222 242 273 304 300 293 276 249 226 203 207 186 185 185 168 158 136 95 66 80 83 101 128 138 131 137 142 135 122 109 91 71 53 53 72 84 88 86 80 63 49
224 213 230 231 226 211 211 212 228 252 288 303 291 287 277 248 210 208 211 194 187 190 180 175 161 140 128 106 110 97 128 137 137 148 148 143 135 125 115 79 56 82 99 101 87 73 57 45 34
224 229 232 232 229 221 208 215 230 264 276 292 293 295 285 247 233 218 212 204 197 195 191 186 188 185 193 169 149 125 130 138 146 153 159 153 153 158 159 132 98 105 108 95 79 59 40 28 22
226 229 233 232 241 223 204 216 237 260 263 290 293 305 315 257 251 235 219 211 203 200 201 196 196 214 218 198 166 152 142 165 163 165 166 172 171 177 194 276 48 96 84 77 47 39 20 9 8
247 236 229 221 226 241 226 231 236 248 258 279 283 292 287 275 272 261 241 221 211 205 205 205 204 212 223 210 195 180 181 185 184 175 177 188 205 214 262 295 306 106 104 31 9 15 4 353 357
220 243 235 227 225 235 232 238 229 239 246 270 277 289 288 281 276 285 270 228 220 213 206 209 210 216 213 216 225 223 199 184 191 189 191 196 209 221 284 321 339 356 3 350 342 341 348 349 347
220 227 247 226 234 225 231 239 233 233 237 261 279 275 283 282 281 284 280 229 216 216 209 208 213 217 210 207 213 225 228 212 196 199 199 197 219 258 278 305 320 310 313 311 314 321 334 338 339
233 232 238 234 233 228 234 239 233 229 236 241 253 260 270 283 281 269 271 228 214 214 213 206 209 215 217 215 216 216 220 209 200 201 203 207 211 217 210 209 231 246 262 290 303 310 321 329 330
235 242 242 237 236 241 234 230 240 228 232 229 240 260 265 273 278 269 262 226 212 210 214 207 209 214 218 218 219 219 223 219 212 209 209 212 218 228 223 226 234 247 262 284 304 313 318 324 326
235 241 245 244 246 238 233 230 234 228 226 228 232 247 254 261 267 268 277 250 225 212 214 210 209 218 221 219 219 219 224 227 222 217 216 218 225 235 243 251 261 269 277 288 302 307 313 317 323
241 241 243 243 240 240 236 237 232 228 231 231 232 237 244 250 255 266 254 241 220 221 218 217 215 217 220 223 222 221 221 229 231 226 220 216 226 233 239 258 268 274 288 302 307 309 312 316 319
243 248 246 242 240 241 240 247 233 229 235 235 238 238 240 247 253 249 251 240 229 218 223 221 222 223 222 226 228 228 228 229 233 232 234 232 233 242 249 254 265 277 289 298 302 306 309 311 312
241 242 247 252 244 242 240 251 252 241 235 237 238 243 244 245 246 242 246 249 236 229 220 223 227 229 229 229 229 226 227 231 236 234 230 235 240 247 249 252 262 275 286 292 296 300 306 308 306
225 230 238 247 249 245 246 252 252 237 235 240 243 248 249 253 250 243 243 244 239 230 228 222 223 227 231 232 230 227 227 229 235 238 236 237 240 246 253 258 266 274 282 287 289 295 299 303 306
239 241 248 251 252 251 252 257 254 243 240 236 245 245 247 251 239 242 239 234 234 229 228 227 226 226 232 233 233 232 231 236 239 241 241 240 245 249 255 262 268 275 282 285 291 297 299 302 305
229 238 242 257 254 259 255 254 252 246 243 238 240 243 242 240 237 240 239 232 232 236 235 230 228 228 233 235 236 235 231 232 237 238 238 239 243 251 259 264 270 275 278 283 290 294 299 301 301
232 236 240 248 267 280 270 266 256 252 249 242 241 241 240 242 242 233 231 230 234 231 236 239 236 232 233 235 235 236 234 233 237 242 245 248 251 255 260 265 269 272 278 283 290 294 294 297 296
230 235 240 246 260 258 270 284 268 261 256 249 241 243 249 246 244 235 233 233 231 230 234 238 237 235 231 233 237 240 243 243 244 246 245 246 249 252 257 261 264 269 276 282 284 287 291 292 295
231 238 234 234 242 262 260 276 270 266 255 246 245 241 250 251 241 233 238 239 237 232 231 230 233 236 235 236 238 238 241 243 244 245 245 247 249 254 259 264 269 271 275 278 281 284 287 288 290
218 229 222 233 245 272 254 246 267 258 255 251 239 241 245 244 241 244 243 241 240 235 231 227 230 233 233 233 237 238 240 244 245 247 249 250 251 254 259 262 267 270 274 277 278 280 283 286 287
216 187 188 217 201 241 253 231 240 249 254 253 246 235 242 241 240 234 234 240 238 238 230 227 229 227 230 234 236 240 243 246 248 249 253 257 258 258 261 263 266 269 270 272 274 275 278 280 280
202 200 181 189 189 255 229 242 254 253 258 252 263 247 234 241 237 241 243 246 245 236 235 230 229 229 231 234 239 241 244 248 251 251 252 254 256 256 256 258 261 265 268 268 268 270 271 273 277
203 200 210 175 223 300 226 253 262 254 253 250 248 249 237 236 238 241 245 243 245 239 235 234 230 230 233 238 239 241 244 246 250 252 252 253 253 253 252 254 256 258 260 262 266 270 274 275 278
217 220 201 204 175 243 241 247 242 251 259 259 255 254 241 230 239 245 246 240 242 237 233 234 235 233 236 237 238 240 240 244 245 245 247 248 250 251 252 253 257 261 264 266 270 274 277 278 280
206 203 209 216 223 200 255 256 259 261 264 260 263 248 229 238 239 245 234 232 237 236 235 231 231 232 236 238 239 239 240 242 244 246 246 248 250 253 257 261 263 265 269 273 277 279 280 283 286
218 212 206 201 211 228 259 259 263 286 251 254 245 237 242 230 229 234 231 235 236 236 237 238 238 238 238 238 239 239 241 245 249 249 249 251 254 259 262 266 270 272 275 277 278 281 283 287 292
Height
3181 3182 3183 3184 3188 3184 3183 3183 3182 3181 3182 3183 3183 3183 3184 3184 3185 3188 3185 3186 3187 3188 3189 3190 3192 3193 3193 3193 3194 3195 3197 3199 3200 3200 3201 3202 3203 3203 3203 3204 3204 3204 3203 3202 3202 3201 3201 3201 3200
3180 3181 3183 3183 3185 3183 3183 3182 3182 3182 3182 3182 3183 3183 3183 3184 3184 3185 3185 3186 3188 3189 3189 3190 3193 3194 3194 3193 3194 3195 3197 3199 3200 3201 3202 3203 3203 3204 3205 3205 3205 3205 3205 3204 3204 3203 3203 3203 3202
3178 3180 3182 3182 3182 3182 3182 3182 3182 3182 3182 3182 3183 3183 3183 3183 3184 3184 3185 3186 3188 3189 3190 3192 3194 3195 3195 3195 3196 3197 3197 3198 3200 3202 3203 3204 3205 3206 3206 3206 3206 3206 3206 3205 3205 3205 3205 3204 3204
3177 3179 3181 3180 3180 3181 3181 3181 3182 3182 3182 3182 3183 3182 3182 3182 3183 3183 3185 3186 3188 3189 3190 3192 3193 3195 3197 3197 3197 3197 3198 3199 3200 3202 3204 3205 3206 3207 3207 3207 3207 3207 3207 3206 3206 3206 3206 3206 3206
3175 3177 3178 3178 3179 3180 3180 3180 3181 3182 3182 3181 3182 3182 3182 3181 3181 3183 3184 3186 3188 3190 3190 3192 3193 3195 3197 3198 3198 3199 3199 3200 3201 3203 3205 3206 3207 3207 3208 3208 3208 3208 3208 3208 3208 3207 3207 3207 3207
3175 3174 3176 3177 3179 3179 3179 3180 3180 3181 3181 3180 3181 3181 3181 3181 3181 3182 3183 3186 3187 3189 3190 3192 3193 3194 3196 3198 3199 3200 3200 3201 3202 3203 3205 3207 3208 3208 3208 3209 3209 3209 3209 3209 3208 3208 3208 3208 3207
3171 3172 3174 3176 3177 3178 3178 3178 3180 3180 3180 3180 3180 3181 3180 3180 3180 3181 3182 3184 3186 3188 3190 3191 3194 3195 3196 3197 3199 3200 3201 3202 3203 3204 3206 3207 3208 3209 3209 3209 3209 3209 3210 3210 3209 3209 3208 3208 3207
3168 3172 3171 3172 3176 3177 3176 3177 3178 3179 3179 3179 3179 3180 3179 3179 3179 3179 3180 3183 3185 3186 3188 3190 3192 3195 3196 3197 3197 3200 3201 3202 3203 3205 3207 3208 3208 3208 3209 3210 3211 3210 3210 3210 3210 3210 3209 3208 3207
3165 3167 3167 3169 3175 3175 3175 3175 3176 3176 3177 3178 3178 3179 3178 3178 3179 3179 3178 3180 3182 3184 3187 3189 3191 3193 3195 3196 3197 3198 3200 3202 3204 3205 3206 3207 3209 3210 3210 3211 3210 3210 3210 3210 3210 3210 3210 3209 3207
3161 3163 3164 3167 3169 3173 3173 3173 3173 3175 3175 3176 3176 3177 3177 3177 3177 3177 3177 3177 3180 3183 3185 3188 3190 3192 3194 3196 3198 3199 3199 3200 3202 3203 3205 3207 3208 3209 3210 3211 3211 3211 3211 3211 3210 3209 3209 3208 3207
3156 3158 3161 3164 3167 3169 3170 3170 3170 3171 3172 3174 3175 3175 3175 3175 3175 3175 3175 3176 3178 3181 3183 3186 3189 3191 3193 3194 3197 3198 3200 3201 3202 3203 3205 3207 3209 3210 3210 3210 3210 3211 3210 3209 3208 3208 3207 3207 3206
3153 3155 3158 3159 3161 3164 3167 3168 3167 3168 3171 3171 3172 3172 3173 3173 3173 3174 3174 3174 3175 3179 3182 3183 3187 3189 3191 3193 3195 3197 3199 3199 3200 3202 3203 3205 3206 3207 3207 3208 3208 3208 3208 3208 3207 3206 3205 3205 3205
3147 3151 3153 3155 3157 3159 3161 3163 3164 3166 3167 3168 3169 3170 3171 3171 3172 3172 3172 3173 3173 3176 3180 3181 3184 3187 3189 3191 3193 3195 3197 3198 3199 3200 3202 3203 3204 3206 3206 3206 3206 3206 3206 3206 3206 3205 3204 3204 3202
3143 3146 3148 3149 3151 3151 3155 3157 3157 3161 3163 3164 3166 3167 3168 3169 3170 3170 3171 3171 3173 3173 3177 3179 3182 3185 3187 3189 3191 3192 3195 3196 3198 3199 3200 3202 3204 3205 3205 3205 3205 3206 3205 3204 3204 3203 3202 3201 3200
3139 3140 3140 3142 3146 3147 3151 3148 3146 3158 3160 3160 3162 3163 3165 3166 3167 3169 3169 3169 3171 3172 3174 3177 3179 3181 3184 3187 3189 3190 3191 3194 3196 3197 3198 3200 3202 3202 3202 3203 3204 3204 3204 3204 3203 3202 3201 3199 3198
3133 3134 3132 3136 3141 3145 3146 3136 3146 3152 3154 3156 3157 3159 3161 3163 3165 3166 3167 3168 3169 3169 3172 3174 3177 3179 3181 3184 3187 3188 3190 3191 3193 3195 3198 3199 3199 3200 3200 3200 3201 3202 3202 3201 3200 3200 3198 3197 3195
3126 3123 3125 3131 3136 3140 3138 3135 3141 3145 3147 3149 3152 3154 3156 3158 3160 3162 3165 3166 3167 3168 3169 3171 3174 3176 3179 3181 3183 3185 3187 3189 3191 3193 3194 3196 3197 3198 3198 3197 3198 3198 3198 3198 3197 3196 3195 3194 3191
3116 3119 3121 3126 3134 3134 3131 3130 3134 3137 3140 3142 3145 3147 3150 3152 3155 3159 3160 3162 3163 3164 3166 3167 3169 3172 3175 3176 3178 3181 3183 3186 3188 3190 3191 3192 3193 3194 3195 3195 3195 3195 3195 3195 3194 3192 3190 3189 3186
3116 3118 3119 3124 3129 3130 3128 3126 3128 3132 3131 3133 3137 3139 3141 3144 3151 3151 3153 3156 3158 3158 3161 3163 3165 3168 3170 3172 3175 3177 3180 3183 3184 3186 3188 3188 3190 3190 3192 3193 3192 3191 3191 3191 3190 3189 3187 3185 3182
3114 3116 3117 3121 3124 3125 3124 3119 3121 3123 3123 3124 3128 3130 3132 3135 3140 3144 3147 3149 3152 3155 3157 3158 3161 3163 3166 3169 3172 3173 3176 3178 3179 3181 3182 3184 3185 3186 3188 3188 3188 3188 3187 3187 3186 3184 3183 3181 3178
3108 3112 3116 3120 3121 3121 3120 3111 3110 3114 3117 3117 3119 3123 3124 3126 3131 3135 3137 3141 3145 3148 3151 3154 3157 3159 3162 3164 3166 3168 3170 3172 3174 3176 3179 3180 3181 3182 3182 3183 3184 3183 3182 3183 3182 3180 3178 3176 3174
3103 3110 3114 3118 3120 3120 3120 3104 3100 3104 3107 3108 3112 3115 3117 3118 3123 3127 3130 3132 3136 3140 3145 3149 3150 3153 3156 3158 3160 3163 3165 3168 3171 3172 3173 3175 3176 3177 3177 3178 3178 3178 3177 3177 3177 3175 3174 3171 3170
3100 3107 3112 3115 3116 3116 3116 3112 3087 3095 3096 3100 3103 3107 3110 3113 3116 3120 3124 3127 3130 3134 3137 3141 3144 3146 3150 3152 3154 3156 3159 3162 3165 3166 3167 3169 3170 3171 3172 3173 3173 3173 3172 3172 3170 3170 3168 3165 3164
3097 3106 3110 3113 3116 3109 3106 3111 3078 3083 3088 3093 3097 3102 3105 3108 3111 3114 3118 3121 3123 3126 3129 3132 3136 3140 3142 3145 3147 3150 3153 3154 3156 3159 3160 3163 3164 3166 3166 3167 3167 3167 3166 3165 3164 3163 3161 3160 3158
3093 3096 3103 3109 3107 3095 3094 3100 3067 3077 3082 3085 3090 3094 3098 3100 3103 3106 3109 3112 3116 3117 3121 3125 3128 3132 3134 3137 3140 3143 3146 3147 3149 3153 3155 3156 3158 3160 3161 3160 3160 3159 3159 3158 3157 3156 3155 3152 3151
3074 3082 3086 3094 3096 3083 3092 3077 3061 3073 3077 3081 3083 3087 3090 3094 3096 3099 3103 3104 3107 3110 3113 3117 3120 3124 3128 3131 3134 3138 3139 3141 3144 3146 3148 3149 3151 3152 3153 3153 3152 3151 3151 3150 3148 3147 3146 3144 3144
3072 3071 3081 3085 3085 3085 3079 3066 3063 3069 3072 3075 3077 3080 3082 3086 3089 3093 3095 3097 3098 3101 3105 3109 3113 3118 3120 3123 3127 3129 3132 3134 3137 3139 3140 3142 3143 3144 3144 3144 3144 3143 3143 3142 3140 3139 3139 3137 3136
3062 3067 3076 3077 3083 3082 3065 3059 3048 3057 3063 3069 3072 3073 3077 3080 3083 3086 3088 3090 3092 3095 3098 3102 3106 3109 3112 3115 3118 3121 3124 3126 3129 3129 3132 3134 3135 3136 3136 3137 3137 3137 3136 3135 3133 3132 3132 3129 3128
3052 3057 3061 3069 3069 3068 3063 3046 3048 3053 3060 3062 3066 3069 3073 3075 3077 3078 3081 3084 3086 3089 3092 3095 3098 3101 3104 3107 3109 3112 3114 3117 3118 3121 3124 3126 3128 3128 3129 3130 3130 3129 3129 3128 3126 3125 3123 3121 3119
3044 3046 3054 3059 3060 3060 3056 3035 3045 3050 3053 3053 3057 3063 3066 3068 3071 3072 3074 3076 3078 3082 3085 3088 3091 3093 3097 3100 3100 3103 3105 3107 3109 3112 3116 3119 3120 3121 3122 3121 3122 3122 3121 3120 3117 3115 3114 3112 3110